Location: Burla
(50.9568°N, 10.4983°E)
Time: 06:38:15
(UTC+00:00)

Cosmos 1943 Rocket - Pass Details

Date: 18 January 2026
Orbit: 811 x 842 km, 71.0° (Epoch: 17 February)

Event Time Altitude Azimuth Distance (km) Brightness Sun altitude
Exits shadow 04:25:37 21° 193° (SSW) 1,764 3.7 -25.6°
Maximum altitude 04:29:20 68° 115° (ESE) 877 2.4 -25.0°
Drops below altitude 10° 04:34:48 10° 34° (NE) 2,411 4.9 -24.1°
Sets 04:37:14 0° 32° (NNE) 3,349 5.7 -23.8°
